Time,TemperatureF,DewpointF,PressureIn,WindDirection,WindDirectionDegrees,WindSpeedMPH,WindSpeedGustMPH,Humidity,HourlyPrecipIn,Conditions,Clouds,dailyrainin,SoftwareType,DateUTC
2013-02-28 00:00:00,49.8,38.1,30.38,ESE,104,0.0,0.0,64,0.00,,,0.00,Wunderground v.1.15,2013-02-28 08:00:00,
2013-02-28 00:05:00,49.6,38.3,30.38,ESE,104,0.0,0.0,65,0.00,,,0.00,Wunderground v.1.15,2013-02-28 08:05:00,
2013-02-28 00:10:00,49.6,38.3,30.38,ESE,104,0.0,0.0,65,0.00,,,0.00,Wunderground v.1.15,2013-02-28 08:10:00,
2013-02-28 00:19:00,49.6,38.3,30.39,ESE,104,0.0,0.0,65,0.00,,,0.00,Wunderground v.1.15,2013-02-28 08:19:00,
2013-02-28 00:25:00,49.6,38.3,30.39,ESE,104,0.0,0.0,65,0.00,,,0.00,Wunderground v.1.15,2013-02-28 08:25:00,
2013-02-28 00:30:00,49.8,38.9,30.38,ESE,104,0.0,2.0,66,0.00,,,0.00,Wunderground v.1.15,2013-02-28 08:30:00,
2013-02-28 00:35:00,50.1,39.2,30.38,ESE,104,1.0,2.0,66,0.00,,,0.00,Wunderground v.1.15,2013-02-28 08:35:00,
2013-02-28 00:40:00,50.4,39.9,30.38,ESE,104,0.0,1.0,67,0.00,,,0.00,Wunderground v.1.15,2013-02-28 08:40:00,
2013-02-28 00:50:00,50.8,42.5,30.38,ESE,104,0.0,0.0,73,0.00,,,0.00,Wunderground v.1.15,2013-02-28 08:50:00,
2013-02-28 00:55:00,51.3,43.3,30.38,ESE,104,0.0,0.0,74,0.00,,,0.00,Wunderground v.1.15,2013-02-28 08:55:00,
2013-02-28 01:00:00,52.0,43.6,30.38,WSW,257,1.0,2.0,73,0.00,,,0.00,Wunderground v.1.15,2013-02-28 09:00:00,
2013-02-28 01:09:00,53.3,43.8,30.38,WSW,257,2.0,2.0,70,0.00,,,0.00,Wunderground v.1.15,2013-02-28 09:09:00,
2013-02-28 01:15:00,53.8,43.9,30.38,WSW,257,1.0,2.0,69,0.00,,,0.00,Wunderground v.1.15,2013-02-28 09:15:00,
2013-02-28 01:20:00,53.6,43.7,30.38,WSW,257,1.0,1.0,69,0.00,,,0.00,Wunderground v.1.15,2013-02-28 09:20:00,
2013-02-28 01:25:00,53.5,43.6,30.38,WSW,257,0.0,1.0,69,0.00,,,0.00,Wunderground v.1.15,2013-02-28 09:25:00,
2013-02-28 01:30:00,52.9,43.4,30.38,WSW,257,0.0,0.0,70,0.00,,,0.00,Wunderground v.1.15,2013-02-28 09:30:00,
2013-02-28 01:40:00,51.0,43.4,30.38,WSW,257,1.0,1.0,75,0.00,,,0.00,Wunderground v.1.15,2013-02-28 09:40:00,
2013-02-28 01:45:00,50.1,43.2,30.39,WSW,257,1.0,1.0,77,0.00,,,0.00,Wunderground v.1.15,2013-02-28 09:45:00,
2013-02-28 01:50:00,49.6,42.7,30.39,WSW,257,0.0,0.0,77,0.00,,,0.00,Wunderground v.1.15,2013-02-28 09:50:00,
2013-02-28 02:00:00,49.4,42.8,30.39,WSW,257,0.0,0.0,78,0.00,,,0.00,Wunderground v.1.15,2013-02-28 10:00:00,
2013-02-28 02:10:00,49.1,42.5,30.39,WSW,257,0.0,0.0,78,0.00,,,0.00,Wunderground v.1.15,2013-02-28 10:10:00,
2013-02-28 02:15:00,48.9,42.3,30.38,WSW,257,0.0,0.0,78,0.00,,,0.00,Wunderground v.1.15,2013-02-28 10:15:00,
2013-02-28 02:20:00,48.8,42.2,30.38,WSW,257,0.0,0.0,78,0.00,,,0.00,Wunderground v.1.15,2013-02-28 10:20:00,
2013-02-28 02:30:00,48.8,42.6,30.38,WSW,257,2.0,2.0,79,0.00,,,0.00,Wunderground v.1.15,2013-02-28 10:30:00,
2013-02-28 02:35:00,48.5,42.0,30.38,WSW,257,1.0,2.0,78,0.00,,,0.00,Wunderground v.1.15,2013-02-28 10:35:00,
2013-02-28 02:40:00,48.2,42.0,30.38,WSW,257,0.0,0.0,79,0.00,,,0.00,Wunderground v.1.15,2013-02-28 10:40:00,
2013-02-28 02:45:00,48.0,41.8,30.38,WSW,257,0.0,0.0,79,0.00,,,0.00,Wunderground v.1.15,2013-02-28 10:45:00,
2013-02-28 02:54:00,47.6,41.7,30.38,WSW,257,1.0,1.0,80,0.00,,,0.00,Wunderground v.1.15,2013-02-28 10:54:00,
2013-02-28 03:00:00,47.6,41.7,30.38,WSW,257,1.0,1.0,80,0.00,,,0.00,Wunderground v.1.15,2013-02-28 11:00:00,
2013-02-28 03:05:00,47.6,41.4,30.38,WSW,257,1.0,1.0,79,0.00,,,0.00,Wunderground v.1.15,2013-02-28 11:05:00,
2013-02-28 03:10:00,47.4,41.2,30.38,WSW,257,1.0,1.0,79,0.00,,,0.00,Wunderground v.1.15,2013-02-28 11:10:00,
2013-02-28 03:15:00,47.3,41.1,30.38,WSW,257,0.0,1.0,79,0.00,,,0.00,Wunderground v.1.15,2013-02-28 11:15:00,
2013-02-28 03:20:00,47.1,41.2,30.38,WSW,257,0.0,0.0,80,0.00,,,0.00,Wunderground v.1.15,2013-02-28 11:20:00,
2013-02-28 03:30:00,47.0,41.5,30.38,WSW,257,0.0,2.0,81,0.00,,,0.00,Wunderground v.1.15,2013-02-28 11:30:00,
2013-02-28 03:35:00,47.0,41.1,30.38,WSW,257,0.0,2.0,80,0.00,,,0.00,Wunderground v.1.15,2013-02-28 11:35:00,
2013-02-28 03:45:00,46.7,41.2,30.38,WSW,257,2.0,2.0,81,0.00,,,0.00,Wunderground v.1.15,2013-02-28 11:45:00,
2013-02-28 03:50:00,46.5,41.0,30.38,WSW,257,1.0,1.0,81,0.00,,,0.00,Wunderground v.1.15,2013-02-28 11:50:00,
2013-02-28 04:00:00,46.4,40.9,30.38,WSW,257,0.0,0.0,81,0.00,,,0.00,Wunderground v.1.15,2013-02-28 12:00:00,
2013-02-28 04:05:00,46.2,40.7,30.38,WSW,257,0.0,0.0,81,0.00,,,0.00,Wunderground v.1.15,2013-02-28 12:05:00,
2013-02-28 04:10:00,46.1,40.9,30.38,WSW,257,0.0,0.0,82,0.00,,,0.00,Wunderground v.1.15,2013-02-28 12:10:00,
2013-02-28 04:19:00,46.1,40.9,30.38,WSW,257,0.0,0.0,82,0.00,,,0.00,Wunderground v.1.15,2013-02-28 12:19:00,
2013-02-28 04:25:00,46.0,40.8,30.38,WSW,257,0.0,0.0,82,0.00,,,0.00,Wunderground v.1.15,2013-02-28 12:25:00,
2013-02-28 04:30:00,46.1,40.9,30.38,WSW,257,0.0,0.0,82,0.00,,,0.00,Wunderground v.1.15,2013-02-28 12:30:00,
2013-02-28 04:35:00,46.1,40.9,30.38,WSW,257,0.0,0.0,82,0.00,,,0.00,Wunderground v.1.15,2013-02-28 12:35:00,
2013-02-28 04:40:00,46.1,40.9,30.38,WSW,257,0.0,0.0,82,0.00,,,0.00,Wunderground v.1.15,2013-02-28 12:40:00,
2013-02-28 04:45:00,46.1,40.9,30.38,WSW,257,0.0,0.0,82,0.00,,,0.00,Wunderground v.1.15,2013-02-28 12:45:00,
2013-02-28 04:55:00,45.8,40.6,30.38,WSW,257,0.0,0.0,82,0.00,,,0.00,Wunderground v.1.15,2013-02-28 12:55:00,
2013-02-28 05:00:00,45.7,40.5,30.39,WSW,257,0.0,0.0,82,0.00,,,0.00,Wunderground v.1.15,2013-02-28 13:00:00,
2013-02-28 05:05:00,45.5,40.6,30.39,WSW,257,0.0,0.0,83,0.00,,,0.00,Wunderground v.1.15,2013-02-28 13:05:00,
2013-02-28 05:10:00,45.4,40.5,30.39,WSW,257,0.0,0.0,83,0.00,,,0.00,Wunderground v.1.15,2013-02-28 13:10:00,
2013-02-28 05:15:00,45.4,40.5,30.40,WSW,257,1.0,1.0,83,0.00,,,0.00,Wunderground v.1.15,2013-02-28 13:15:00,
2013-02-28 05:24:00,44.9,40.0,30.40,WSW,257,1.0,2.0,83,0.00,,,0.00,Wunderground v.1.15,2013-02-28 13:24:00,
2013-02-28 05:29:00,44.8,40.0,30.40,WSW,257,1.0,1.0,83,0.00,,,0.00,Wunderground v.1.15,2013-02-28 13:29:00,
2013-02-28 05:35:00,44.6,39.8,30.40,WSW,257,0.0,1.0,83,0.00,,,0.00,Wunderground v.1.15,2013-02-28 13:35:00,
2013-02-28 05:40:00,44.6,40.1,30.40,WSW,257,0.0,0.0,84,0.00,,,0.00,Wunderground v.1.15,2013-02-28 13:40:00,
2013-02-28 05:45:00,44.6,40.1,30.40,WSW,257,0.0,0.0,84,0.00,,,0.00,Wunderground v.1.15,2013-02-28 13:45:00,
2013-02-28 05:50:00,44.6,40.1,30.40,WSW,257,0.0,0.0,84,0.00,,,0.00,Wunderground v.1.15,2013-02-28 13:50:00,
2013-02-28 06:00:00,44.6,40.1,30.41,WSW,257,2.0,3.0,84,0.00,,,0.00,Wunderground v.1.15,2013-02-28 14:00:00,
2013-02-28 06:05:00,44.9,40.4,30.41,West,277,2.0,3.0,84,0.00,,,0.00,Wunderground v.1.15,2013-02-28 14:05:00,
2013-02-28 06:15:00,45.1,40.6,30.41,West,277,2.0,2.0,84,0.00,,,0.00,Wunderground v.1.15,2013-02-28 14:15:00,
2013-02-28 06:20:00,45.1,40.6,30.41,West,277,1.0,1.0,84,0.00,,,0.00,Wunderground v.1.15,2013-02-28 14:20:00,
2013-02-28 06:30:00,44.8,40.3,30.41,West,277,0.0,0.0,84,0.00,,,0.00,Wunderground v.1.15,2013-02-28 14:30:00,
2013-02-28 06:35:00,44.6,40.1,30.41,West,277,0.0,0.0,84,0.00,,,0.00,Wunderground v.1.15,2013-02-28 14:35:00,
2013-02-28 06:40:00,44.5,40.0,30.41,West,277,0.0,0.0,84,0.00,,,0.00,Wunderground v.1.15,2013-02-28 14:40:00,
2013-02-28 06:50:00,44.5,40.3,30.41,West,277,1.0,1.0,85,0.00,,,0.00,Wunderground v.1.15,2013-02-28 14:50:00,
2013-02-28 06:55:00,44.3,39.8,30.41,West,277,1.0,1.0,84,0.00,,,0.00,Wunderground v.1.15,2013-02-28 14:55:00,
2013-02-28 07:05:00,44.6,40.4,30.42,West,277,1.0,2.0,85,0.00,,,0.00,Wunderground v.1.15,2013-02-28 15:05:00,
2013-02-28 07:10:00,44.8,40.6,30.42,West,277,1.0,1.0,85,0.00,,,0.00,Wunderground v.1.15,2013-02-28 15:10:00,
2013-02-28 07:20:00,45.1,40.9,30.43,West,277,0.0,0.0,85,0.00,,,0.00,Wunderground v.1.15,2013-02-28 15:20:00,
2013-02-28 07:25:00,45.2,41.0,30.43,West,277,0.0,0.0,85,0.00,,,0.00,Wunderground v.1.15,2013-02-28 15:25:00,
2013-02-28 07:30:00,45.7,41.1,30.42,West,277,0.0,0.0,84,0.00,,,0.00,Wunderground v.1.15,2013-02-28 15:30:00,
2013-02-28 07:39:00,46.4,41.8,30.42,West,277,0.0,0.0,84,0.00,,,0.00,Wunderground v.1.15,2013-02-28 15:39:00,
2013-02-28 07:45:00,47.1,42.2,30.42,West,277,0.0,0.0,83,0.00,,,0.00,Wunderground v.1.15,2013-02-28 15:45:00,
2013-02-28 07:50:00,47.7,42.2,30.42,West,277,0.0,0.0,81,0.00,,,0.00,Wunderground v.1.15,2013-02-28 15:50:00,
2013-02-28 07:55:00,48.0,42.4,30.42,West,277,0.0,0.0,81,0.00,,,0.00,Wunderground v.1.15,2013-02-28 15:55:00,
2013-02-28 08:00:00,48.5,42.6,30.43,West,277,0.0,0.0,80,0.00,,,0.00,Wunderground v.1.15,2013-02-28 16:00:00,
2013-02-28 08:10:00,49.8,42.9,30.43,West,277,0.0,0.0,77,0.00,,,0.00,Wunderground v.1.15,2013-02-28 16:10:00,
2013-02-28 08:15:00,50.4,43.1,30.43,West,277,0.0,0.0,76,0.00,,,0.00,Wunderground v.1.15,2013-02-28 16:15:00,
2013-02-28 08:20:00,51.1,43.8,30.43,West,277,0.0,0.0,76,0.00,,,0.00,Wunderground v.1.15,2013-02-28 16:20:00,
2013-02-28 08:30:00,51.7,43.7,30.44,West,277,0.0,0.0,74,0.00,,,0.00,Wunderground v.1.15,2013-02-28 16:30:00,
2013-02-28 08:35:00,52.2,44.2,30.44,West,277,0.0,0.0,74,0.00,,,0.00,Wunderground v.1.15,2013-02-28 16:35:00,
2013-02-28 08:45:00,55.7,44.9,30.44,West,277,0.0,0.0,67,0.00,,,0.00,Wunderground v.1.15,2013-02-28 16:45:00,
2013-02-28 08:50:00,55.6,45.2,30.44,West,277,0.0,1.0,68,0.00,,,0.00,Wunderground v.1.15,2013-02-28 16:50:00,
2013-02-28 09:00:00,56.7,45.5,30.45,SW,230,2.0,4.0,66,0.00,,,0.00,Wunderground v.1.15,2013-02-28 17:00:00,
2013-02-28 09:05:00,57.2,45.5,30.45,SW,232,3.0,4.0,65,0.00,,,0.00,Wunderground v.1.15,2013-02-28 17:05:00,
2013-02-28 09:10:00,58.1,46.0,30.45,SW,232,3.0,3.0,64,0.00,,,0.00,Wunderground v.1.15,2013-02-28 17:10:00,
2013-02-28 09:20:00,59.0,46.0,30.44,WSW,247,2.0,2.0,62,0.00,,,0.00,Wunderground v.1.15,2013-02-28 17:20:00,
2013-02-28 09:25:00,60.1,45.7,30.44,WSW,247,1.0,2.0,59,0.00,,,0.00,Wunderground v.1.15,2013-02-28 17:25:00,
2013-02-28 09:35:00,61.3,46.4,30.44,WNW,291,0.0,2.0,58,0.00,,,0.00,Wunderground v.1.15,2013-02-28 17:35:00,
2013-02-28 09:40:00,61.2,45.8,30.44,West,273,1.0,3.0,57,0.00,,,0.00,Wunderground v.1.15,2013-02-28 17:40:00,
2013-02-28 09:45:00,61.2,45.8,30.44,NW,308,2.0,3.0,57,0.00,,,0.00,Wunderground v.1.15,2013-02-28 17:45:00,
2013-02-28 09:50:00,61.6,45.3,30.44,NW,317,2.0,2.0,55,0.00,,,0.00,Wunderground v.1.15,2013-02-28 17:50:00,
2013-02-28 10:00:00,62.0,45.2,30.44,West,281,3.0,3.0,54,0.00,,,0.00,Wunderground v.1.15,2013-02-28 18:00:00,
2013-02-28 10:05:00,62.3,44.4,30.44,NW,306,3.0,3.0,52,0.00,,,0.00,Wunderground v.1.15,2013-02-28 18:05:00,
2013-02-28 10:10:00,62.7,44.3,30.44,SSW,212,2.0,4.0,51,0.00,,,0.00,Wunderground v.1.15,2013-02-28 18:10:00,
2013-02-28 10:19:00,63.1,44.2,30.44,WSW,240,3.0,3.0,50,0.00,,,0.00,Wunderground v.1.15,2013-02-28 18:19:00,
2013-02-28 10:25:00,63.5,44.0,30.44,North,355,3.0,3.0,49,0.00,,,0.00,Wunderground v.1.15,2013-02-28 18:25:00,
2013-02-28 10:30:00,63.4,43.9,30.44,WSW,258,3.0,3.0,49,0.00,,,0.00,Wunderground v.1.15,2013-02-28 18:30:00,
2013-02-28 10:35:00,63.7,44.2,30.44,West,275,3.0,3.0,49,0.00,,,0.00,Wunderground v.1.15,2013-02-28 18:35:00,
2013-02-28 10:40:00,63.5,43.4,30.44,WSW,244,3.0,4.0,48,0.00,,,0.00,Wunderground v.1.15,2013-02-28 18:40:00,
2013-02-28 10:50:00,65.0,43.1,30.44,WNW,298,2.0,2.0,45,0.00,,,0.00,Wunderground v.1.15,2013-02-28 18:50:00,
2013-02-28 10:55:00,65.0,43.7,30.44,ESE,103,1.0,2.0,46,0.00,,,0.00,Wunderground v.1.15,2013-02-28 18:55:00,
2013-02-28 11:05:00,65.0,43.1,30.43,South,178,2.0,5.0,45,0.00,,,0.00,Wunderground v.1.15,2013-02-28 19:05:00,
2013-02-28 11:15:00,66.0,43.5,30.42,SE,130,1.0,5.0,44,0.00,,,0.00,Wunderground v.1.15,2013-02-28 19:15:00,
2013-02-28 11:20:00,66.0,43.5,30.42,East,99,1.0,7.0,44,0.00,,,0.00,Wunderground v.1.15,2013-02-28 19:20:00,
2013-02-28 11:30:00,66.0,44.0,30.42,SE,128,3.0,3.0,45,0.00,,,0.00,Wunderground v.1.15,2013-02-28 19:30:00,
2013-02-28 11:40:00,66.9,44.3,30.42,SSE,163,2.0,3.0,44,0.00,,,0.00,Wunderground v.1.15,2013-02-28 19:40:00,
2013-02-28 11:45:00,67.3,44.6,30.41,ESE,123,2.0,3.0,44,0.00,,,0.00,Wunderground v.1.15,2013-02-28 19:45:00,
2013-02-28 11:50:00,67.3,44.0,30.41,ESE,119,2.0,4.0,43,0.00,,,0.00,Wunderground v.1.15,2013-02-28 19:50:00,
2013-02-28 12:00:00,67.4,44.1,30.41,East,88,1.0,2.0,43,0.00,,,0.00,Wunderground v.1.15,2013-02-28 20:00:00,
2013-02-28 12:05:00,67.3,42.8,30.41,ESE,107,3.0,4.0,41,0.00,,,0.00,Wunderground v.1.15,2013-02-28 20:05:00,
2013-02-28 12:10:00,67.3,42.8,30.41,ESE,102,3.0,3.0,41,0.00,,,0.00,Wunderground v.1.15,2013-02-28 20:10:00,
2013-02-28 12:15:00,67.6,43.1,30.41,SSW,195,1.0,3.0,41,0.00,,,0.00,Wunderground v.1.15,2013-02-28 20:15:00,
2013-02-28 12:25:00,67.9,43.3,30.41,West,267,2.0,2.0,41,0.00,,,0.00,Wunderground v.1.15,2013-02-28 20:25:00,
2013-02-28 12:30:00,67.8,42.6,30.41,ESE,123,1.0,2.0,40,0.00,,,0.00,Wunderground v.1.15,2013-02-28 20:30:00,
2013-02-28 12:35:00,68.1,42.2,30.41,South,173,1.0,2.0,39,0.00,,,0.00,Wunderground v.1.15,2013-02-28 20:35:00,
2013-02-28 12:45:00,69.1,43.1,30.40,ESE,109,0.0,1.0,39,0.00,,,0.00,Wunderground v.1.15,2013-02-28 20:45:00,
2013-02-28 12:50:00,69.6,43.5,30.40,ESE,113,1.0,5.0,39,0.00,,,0.00,Wunderground v.1.15,2013-02-28 20:50:00,
2013-02-28 13:00:00,69.3,43.3,30.39,NNW,337,1.0,1.0,39,0.00,,,0.00,Wunderground v.1.15,2013-02-28 21:00:00,
2013-02-28 13:05:00,69.4,42.7,30.39,North,355,1.0,4.0,38,0.00,,,0.00,Wunderground v.1.15,2013-02-28 21:05:00,
2013-02-28 13:10:00,69.8,41.6,30.39,SSW,209,2.0,2.0,36,0.00,,,0.00,Wunderground v.1.15,2013-02-28 21:10:00,
2013-02-28 13:20:00,69.8,41.6,30.39,SE,127,1.0,1.0,36,0.00,,,0.00,Wunderground v.1.15,2013-02-28 21:20:00,
2013-02-28 13:25:00,70.3,42.1,30.39,South,181,0.0,3.0,36,0.00,,,0.00,Wunderground v.1.15,2013-02-28 21:25:00,
2013-02-28 13:30:00,70.9,41.9,30.38,South,175,0.0,0.0,35,0.00,,,0.00,Wunderground v.1.15,2013-02-28 21:30:00,
2013-02-28 13:40:00,70.4,41.4,30.38,SE,128,1.0,1.0,35,0.00,,,0.00,Wunderground v.1.15,2013-02-28 21:40:00,
2013-02-28 13:45:00,70.4,42.2,30.37,East,89,1.0,1.0,36,0.00,,,0.00,Wunderground v.1.15,2013-02-28 21:45:00,
2013-02-28 13:50:00,70.4,42.2,30.37,NE,53,1.0,2.0,36,0.00,,,0.00,Wunderground v.1.15,2013-02-28 21:50:00,
2013-02-28 14:00:00,72.0,42.8,30.37,East,89,0.0,0.0,35,0.00,,,0.00,Wunderground v.1.15,2013-02-28 22:00:00,
2013-02-28 14:05:00,71.8,42.7,30.37,East,98,1.0,3.0,35,0.00,,,0.00,Wunderground v.1.15,2013-02-28 22:05:00,
2013-02-28 14:10:00,71.1,42.8,30.37,SE,135,2.0,4.0,36,0.00,,,0.00,Wunderground v.1.15,2013-02-28 22:10:00,
2013-02-28 14:20:00,71.3,43.0,30.36,West,274,2.0,6.0,36,0.00,,,0.00,Wunderground v.1.15,2013-02-28 22:20:00,
2013-02-28 14:25:00,70.9,42.6,30.36,West,274,3.0,6.0,36,0.00,,,0.00,Wunderground v.1.15,2013-02-28 22:25:00,
2013-02-28 14:30:00,71.1,42.8,30.36,SW,223,2.0,5.0,36,0.00,,,0.00,Wunderground v.1.15,2013-02-28 22:30:00,
2013-02-28 14:40:00,71.3,42.2,30.36,SW,223,1.0,1.0,35,0.00,,,0.00,Wunderground v.1.15,2013-02-28 22:40:00,
2013-02-28 14:45:00,72.3,42.3,30.36,SW,223,0.0,2.0,34,0.00,,,0.00,Wunderground v.1.15,2013-02-28 22:45:00,
2013-02-28 14:50:00,72.7,41.9,30.36,WSW,247,1.0,1.0,33,0.00,,,0.00,Wunderground v.1.15,2013-02-28 22:50:00,
2013-02-28 15:00:00,70.9,41.9,30.36,East,99,3.0,5.0,35,0.00,,,0.00,Wunderground v.1.15,2013-02-28 23:00:00,
2013-02-28 15:05:00,70.9,43.3,30.36,ENE,65,5.0,7.0,37,0.00,,,0.00,Wunderground v.1.15,2013-02-28 23:05:00,
2013-02-28 15:10:00,70.8,42.5,30.36,ESE,110,4.0,4.0,36,0.00,,,0.00,Wunderground v.1.15,2013-02-28 23:10:00,
2013-02-28 15:20:00,70.8,42.5,30.36,ENE,61,4.0,4.0,36,0.00,,,0.00,Wunderground v.1.15,2013-02-28 23:20:00,
2013-02-28 15:25:00,71.5,43.1,30.36,East,101,3.0,4.0,36,0.00,,,0.00,Wunderground v.1.15,2013-02-28 23:25:00,
2013-02-28 15:30:00,71.8,42.7,30.36,ESE,109,2.0,2.0,35,0.00,,,0.00,Wunderground v.1.15,2013-02-28 23:30:00,
2013-02-28 15:40:00,71.8,42.7,30.36,East,101,2.0,2.0,35,0.00,,,0.00,Wunderground v.1.15,2013-02-28 23:40:00,
2013-02-28 15:45:00,71.6,42.5,30.36,ESE,105,3.0,4.0,35,0.00,,,0.00,Wunderground v.1.15,2013-02-28 23:45:00,
2013-02-28 15:50:00,71.5,42.4,30.36,ESE,102,3.0,3.0,35,0.00,,,0.00,Wunderground v.1.15,2013-02-28 23:50:00,
2013-02-28 16:00:00,72.7,43.5,30.36,South,183,0.0,0.0,35,0.00,,,0.00,Wunderground v.1.15,2013-03-01 00:00:00,
2013-02-28 16:05:00,72.5,43.3,30.36,SE,128,1.0,2.0,35,0.00,,,0.00,Wunderground v.1.15,2013-03-01 00:05:00,
2013-02-28 16:10:00,72.1,43.7,30.36,SE,136,1.0,1.0,36,0.00,,,0.00,Wunderground v.1.15,2013-03-01 00:10:00,
2013-02-28 16:15:00,72.0,43.6,30.36,East,79,1.0,1.0,36,0.00,,,0.00,Wunderground v.1.15,2013-03-01 00:15:00,
2013-02-28 16:25:00,71.5,45.9,30.36,East,98,2.0,2.0,40,0.00,,,0.00,Wunderground v.1.15,2013-03-01 00:25:00,
2013-02-28 16:30:00,71.3,44.4,30.35,ENE,75,1.0,3.0,38,0.00,,,0.00,Wunderground v.1.15,2013-03-01 00:30:00,
2013-02-28 16:35:00,71.3,45.1,30.35,NE,53,1.0,3.0,39,0.00,,,0.00,Wunderground v.1.15,2013-03-01 00:35:00,
2013-02-28 16:40:00,71.5,46.6,30.35,ESE,107,1.0,5.0,41,0.00,,,0.00,Wunderground v.1.15,2013-03-01 00:40:00,
2013-02-28 16:50:00,70.1,44.0,30.36,SE,136,2.0,2.0,39,0.00,,,0.00,Wunderground v.1.15,2013-03-01 00:50:00,
2013-02-28 16:55:00,69.6,44.2,30.36,ESE,110,1.0,2.0,40,0.00,,,0.00,Wunderground v.1.15,2013-03-01 00:55:00,
2013-02-28 17:00:00,69.3,43.9,30.36,ESE,119,1.0,1.0,40,0.00,,,0.00,Wunderground v.1.15,2013-03-01 01:00:00,
2013-02-28 17:10:00,68.9,44.2,30.36,East,94,0.0,0.0,41,0.00,,,0.00,Wunderground v.1.15,2013-03-01 01:10:00,
2013-02-28 17:15:00,68.6,43.9,30.36,ESE,116,1.0,1.0,41,0.00,,,0.00,Wunderground v.1.15,2013-03-01 01:15:00,
2013-02-28 17:20:00,68.6,43.9,30.36,SE,130,1.0,1.0,41,0.00,,,0.00,Wunderground v.1.15,2013-03-01 01:20:00,
2013-02-28 17:30:00,67.9,44.0,30.36,ESE,111,0.0,0.0,42,0.00,,,0.00,Wunderground v.1.15,2013-03-01 01:30:00,
2013-02-28 17:35:00,67.6,44.3,30.36,ESE,111,0.0,0.0,43,0.00,,,0.00,Wunderground v.1.15,2013-03-01 01:35:00,
2013-02-28 17:40:00,67.1,43.8,30.36,ESE,111,0.0,0.0,43,0.00,,,0.00,Wunderground v.1.15,2013-03-01 01:40:00,
2013-02-28 17:50:00,66.3,44.3,30.37,ESE,111,0.0,0.0,45,0.00,,,0.00,Wunderground v.1.15,2013-03-01 01:50:00,
2013-02-28 17:55:00,65.8,44.4,30.37,ESE,111,0.0,0.0,46,0.00,,,0.00,Wunderground v.1.15,2013-03-01 01:55:00,
2013-02-28 18:00:00,65.3,44.5,30.37,ESE,111,0.0,0.0,47,0.00,,,0.00,Wunderground v.1.15,2013-03-01 02:00:00,
2013-02-28 18:05:00,64.5,44.9,30.37,ESE,111,0.0,0.0,49,0.00,,,0.00,Wunderground v.1.15,2013-03-01 02:05:00,
2013-02-28 18:15:00,62.4,44.0,30.37,ESE,111,0.0,0.0,51,0.00,,,0.00,Wunderground v.1.15,2013-03-01 02:15:00,
2013-02-28 18:20:00,61.8,44.0,30.37,ESE,111,0.0,0.0,52,0.00,,,0.00,Wunderground v.1.15,2013-03-01 02:20:00,
2013-02-28 18:25:00,61.0,44.2,30.37,ESE,111,0.0,0.0,54,0.00,,,0.00,Wunderground v.1.15,2013-03-01 02:25:00,
2013-02-28 18:35:00,60.1,44.3,30.38,ESE,111,0.0,0.0,56,0.00,,,0.00,Wunderground v.1.15,2013-03-01 02:35:00,
2013-02-28 18:45:00,59.0,44.2,30.39,ESE,111,0.0,0.0,58,0.00,,,0.00,Wunderground v.1.15,2013-03-01 02:45:00,
2013-02-28 18:50:00,58.4,43.7,30.39,ESE,111,0.0,0.0,58,0.00,,,0.00,Wunderground v.1.15,2013-03-01 02:50:00,
2013-02-28 19:00:00,57.3,43.1,30.39,ESE,111,0.0,0.0,59,0.00,,,0.00,Wunderground v.1.15,2013-03-01 03:00:00,
2013-02-28 19:10:00,56.5,43.2,30.39,ESE,111,0.0,0.0,61,0.00,,,0.00,Wunderground v.1.15,2013-03-01 03:10:00,
2013-02-28 19:15:00,56.0,43.2,30.40,ESE,111,0.0,0.0,62,0.00,,,0.00,Wunderground v.1.15,2013-03-01 03:15:00,
2013-02-28 19:20:00,55.4,43.0,30.40,ESE,111,0.0,0.0,63,0.00,,,0.00,Wunderground v.1.15,2013-03-01 03:20:00,
2013-02-28 19:29:00,54.1,42.6,30.41,ESE,111,0.0,0.0,65,0.00,,,0.00,Wunderground v.1.15,2013-03-01 03:29:00,
2013-02-28 19:35:00,53.8,42.7,30.41,ESE,111,0.0,0.0,66,0.00,,,0.00,Wunderground v.1.15,2013-03-01 03:35:00,
2013-02-28 19:40:00,53.5,42.0,30.41,ESE,111,0.0,0.0,65,0.00,,,0.00,Wunderground v.1.15,2013-03-01 03:40:00,
2013-02-28 19:45:00,53.2,42.1,30.41,ESE,111,0.0,0.0,66,0.00,,,0.00,Wunderground v.1.15,2013-03-01 03:45:00,
2013-02-28 19:50:00,52.9,42.2,30.41,ESE,111,0.0,0.0,67,0.00,,,0.00,Wunderground v.1.15,2013-03-01 03:50:00,
2013-02-28 20:00:00,52.3,42.0,30.41,WSW,243,1.0,1.0,68,0.00,,,0.00,Wunderground v.1.15,2013-03-01 04:00:00,
2013-02-28 20:05:00,51.7,41.9,30.41,WSW,243,1.0,1.0,69,0.00,,,0.00,Wunderground v.1.15,2013-03-01 04:05:00,
2013-02-28 20:10:00,51.4,41.6,30.41,WSW,243,0.0,1.0,69,0.00,,,0.00,Wunderground v.1.15,2013-03-01 04:10:00,
2013-02-28 20:20:00,50.7,41.3,30.42,WSW,243,0.0,0.0,70,0.00,,,0.00,Wunderground v.1.15,2013-03-01 04:20:00,
2013-02-28 20:30:00,49.9,41.2,30.42,WSW,243,0.0,0.0,72,0.00,,,0.00,Wunderground v.1.15,2013-03-01 04:30:00,
2013-02-28 20:35:00,49.6,41.3,30.42,WSW,243,0.0,0.0,73,0.00,,,0.00,Wunderground v.1.15,2013-03-01 04:35:00,
2013-02-28 20:40:00,49.5,41.2,30.42,WSW,243,0.0,0.0,73,0.00,,,0.00,Wunderground v.1.15,2013-03-01 04:40:00,
2013-02-28 20:50:00,48.9,41.0,30.42,WSW,243,0.0,0.0,74,0.00,,,0.00,Wunderground v.1.15,2013-03-01 04:50:00,
2013-02-28 20:55:00,48.8,40.9,30.42,WSW,243,0.0,0.0,74,0.00,,,0.00,Wunderground v.1.15,2013-03-01 04:55:00,
2013-02-28 21:00:00,48.6,41.0,30.43,WSW,243,0.0,0.0,75,0.00,,,0.00,Wunderground v.1.15,2013-03-01 05:00:00,
2013-02-28 21:05:00,48.5,40.9,30.43,WSW,243,0.0,0.0,75,0.00,,,0.00,Wunderground v.1.15,2013-03-01 05:05:00,
2013-02-28 21:10:00,48.3,41.1,30.43,WSW,243,0.0,0.0,76,0.00,,,0.00,Wunderground v.1.15,2013-03-01 05:10:00,
2013-02-28 21:15:00,48.0,40.8,30.44,WSW,243,0.0,0.0,76,0.00,,,0.00,Wunderground v.1.15,2013-03-01 05:15:00,
2013-02-28 21:20:00,47.9,41.0,30.44,WSW,243,0.0,0.0,77,0.00,,,0.00,Wunderground v.1.15,2013-03-01 05:20:00,
2013-02-28 21:25:00,47.7,40.8,30.44,WSW,243,0.0,0.0,77,0.00,,,0.00,Wunderground v.1.15,2013-03-01 05:25:00,
2013-02-28 21:30:00,47.4,40.6,30.44,WSW,243,0.0,2.0,77,0.00,,,0.00,Wunderground v.1.15,2013-03-01 05:30:00,
2013-02-28 21:40:00,47.0,40.2,30.44,WSW,243,0.0,0.0,77,0.00,,,0.00,Wunderground v.1.15,2013-03-01 05:40:00,
2013-02-28 21:45:00,46.7,40.5,30.44,WSW,244,0.0,1.0,79,0.00,,,0.00,Wunderground v.1.15,2013-03-01 05:45:00,
2013-02-28 21:50:00,46.5,40.0,30.44,WSW,244,1.0,1.0,78,0.00,,,0.00,Wunderground v.1.15,2013-03-01 05:50:00,
2013-02-28 22:00:00,46.1,39.9,30.45,WSW,244,0.0,0.0,79,0.00,,,0.00,Wunderground v.1.15,2013-03-01 06:00:00,
2013-02-28 22:05:00,46.0,40.2,30.45,WSW,244,0.0,0.0,80,0.00,,,0.00,Wunderground v.1.15,2013-03-01 06:05:00,
2013-02-28 22:10:00,45.8,40.0,30.45,WSW,244,0.0,0.0,80,0.00,,,0.00,Wunderground v.1.15,2013-03-01 06:10:00,
2013-02-28 22:20:00,45.4,39.9,30.44,WSW,244,0.0,0.0,81,0.00,,,0.00,Wunderground v.1.15,2013-03-01 06:20:00,
2013-02-28 22:25:00,45.2,39.7,30.44,WSW,244,0.0,0.0,81,0.00,,,0.00,Wunderground v.1.15,2013-03-01 06:25:00,
2013-02-28 22:30:00,45.1,39.6,30.45,WSW,244,0.0,0.0,81,0.00,,,0.00,Wunderground v.1.15,2013-03-01 06:30:00,
2013-02-28 22:35:00,44.9,39.4,30.45,WSW,244,0.0,2.0,81,0.00,,,0.00,Wunderground v.1.15,2013-03-01 06:35:00,
2013-02-28 22:40:00,44.8,39.6,30.45,WSW,244,0.0,0.0,82,0.00,,,0.00,Wunderground v.1.15,2013-03-01 06:40:00,
2013-02-28 22:50:00,44.3,39.2,30.45,WSW,244,0.0,0.0,82,0.00,,,0.00,Wunderground v.1.15,2013-03-01 06:50:00,
2013-02-28 22:55:00,44.1,39.0,30.45,WSW,244,0.0,0.0,82,0.00,,,0.00,Wunderground v.1.15,2013-03-01 06:55:00,
2013-02-28 23:00:00,43.9,38.8,30.45,WSW,244,1.0,1.0,82,0.00,,,0.00,Wunderground v.1.15,2013-03-01 07:00:00,
2013-02-28 23:05:00,43.8,39.0,30.45,WSW,244,1.0,1.0,83,0.00,,,0.00,Wunderground v.1.15,2013-03-01 07:05:00,
2013-02-28 23:15:00,43.5,38.7,30.45,WSW,244,0.0,1.0,83,0.00,,,0.00,Wunderground v.1.15,2013-03-01 07:15:00,
2013-02-28 23:20:00,43.3,38.5,30.45,WSW,244,0.0,0.0,83,0.00,,,0.00,Wunderground v.1.15,2013-03-01 07:20:00,
2013-02-28 23:25:00,43.1,38.6,30.45,WSW,244,0.0,0.0,84,0.00,,,0.00,Wunderground v.1.15,2013-03-01 07:25:00,
2013-02-28 23:30:00,43.1,38.6,30.45,WSW,244,0.0,0.0,84,0.00,,,0.00,Wunderground v.1.15,2013-03-01 07:30:00,
2013-02-28 23:40:00,43.1,38.9,30.45,WSW,244,0.0,0.0,85,0.00,,,0.00,Wunderground v.1.15,2013-03-01 07:40:00,
2013-02-28 23:50:00,42.8,38.6,30.45,WSW,244,0.0,0.0,85,0.00,,,0.00,Wunderground v.1.15,2013-03-01 07:50:00,
2013-02-28 23:55:00,42.8,38.6,30.45,WSW,244,0.0,0.0,85,0.00,,,0.00,Wunderground v.1.15,2013-03-01 07:55:00,